Torna al catalogo

ONEWEB-0050

AttivoComunicazioniPO
NORAD 45453·PAYLOAD·🇬🇧 United Kingdom

Lanciato Mar 21, 2020 da Baikonur Cosmodrome

Loading…

Prossimi Passaggi (prossime 24 ore)

TLE

AggiornatoSource: CelesTrak SupGP

Epoca: Sep 14, 2026, 15:33 UTC

1 45453C 20020AF  26257.64841850  .00002168  00000+0  22208-3 0  2573
2 45453  88.9332 221.0588 0004969  45.1107  23.0051 14.90613694    13

Traccia ONEWEB-0050 in tempo reale con AllMySat

Download on the App Store